TRANSIT 16 1 02807U 67048A 09183.62518531 .00000074 00000-0 10000-3 0 2554 2 02807 89.6527 203.1224 0018418 190.3053 169.7722 13.49714832 72705 TRANSIT 17 1 02965U 67092A 09183.91116966 .00000078 00000-0 10000-3 0 5474 2 02965 89.2599 121.6848 0050031 25.9032 334.4608 13.52424625 59248 TRANSIT 18 1 03133U 68012A 09184.30667753 .00000074 00000-0 10000-3 0 3119 2 03133 89.9806 286.6813 0073324 277.4860 81.7967 13.50526607 34739 NNSS 19 1 04507U 70067A 09184.29116186 .00000031 00000-0 29659-4 0 9698 2 04507 89.8658 311.4976 0174328 37.7971 323.5280 13.50136956911858 NNSS O-20 1 06909U 73081A 09184.28488236 .00000023 00000-0 12326-4 0 4028 2 06909 89.8572 357.8158 0160624 60.2347 301.4691 13.69752714981268 TRANSAT 1 10457U 77106A 09184.70747094 .00000072 00000-0 10000-3 0 8743 2 10457 89.6787 248.1791 0023191 221.2298 138.7099 13.48263101558192 NOVA I 1 12458U 81044A 09183.85595608 .00000050 00000-0 10000-3 0 7856 2 12458 90.0927 115.9753 0016469 97.2845 263.0178 13.22701938357919 NOVA 3 1 15362U 84110A 09183.67950266 .00000050 00000-0 10000-3 0 9745 2 15362 89.9797 50.7264 0031571 324.2867 35.6153 13.22478673193156 OSCAR 30 1 15935U 85066A 09183.94298760 .00000021 00000-0 18248-4 0 4180 2 15935 90.0508 22.8547 0171280 100.7945 261.2529 13.35259035162800 OSCAR 24 1 15936U 85066B 09184.12074404 .00000066 00000-0 10000-3 0 7470 2 15936 90.0393 19.9189 0171976 103.2456 258.7936 13.35158845164957 POLAR BEAR 1 17070U 86088A 09184.24980813 .00000065 00000-0 56282-4 0 8045 2 17070 89.5465 108.8188 0036869 218.4675 141.3856 13.74338653134844 OSCAR 27 1 18361U 87080A 09183.80771649 .00000069 00000-0 10000-3 0 4258 2 18361 90.3288 233.9256 0107623 134.5429 226.4564 13.44074845 68720 OSCAR 29 1 18362U 87080B 09183.78827776 .00000069 00000-0 10000-3 0 6835 2 18362 90.3294 234.0429 0108852 145.3823 215.4465 13.43700936 68493 OSCAR 23 1 19070U 88033A 09183.84228216 .00000056 00000-0 10000-3 0 6007 2 19070 90.2464 185.2737 0189039 317.0551 41.5948 13.27099839 25918 OSCAR 32 1 19071U 88033B 09183.60502573 .00000056 00000-0 10000-3 0 2863 2 19071 90.2463 185.3503 0187532 309.9192 48.5583 13.27309392 26042 NOVA 11 1 19223U 88052A 09184.06449516 .00000050 00000-0 10000-3 0 4654 2 19223 90.0270 90.6877 0031454 5.1024 355.0425 13.22412731 15740 OSCAR 25 1 19419U 88074A 09183.76696255 .00000068 00000-0 10000-3 0 6757 2 19419 89.9136 31.2875 0098685 91.5492 269.6958 13.41805785 20924 OSCAR 31 1 19420U 88074B 09183.79362497 .00000068 00000-0 10000-3 0 3500 2 19420 89.9137 31.2216 0096792 86.1545 275.0651 13.41861580 21020